Regional Weather Roundup
Issued by NWS

Home | Current Version | Previous Version | Text Only | Print | Product List | Glossary On
Versions: 1 2 3 4 5 6 7 8 9 10 11 12 13 14 15 16 17 18 19 20 21 22 23 24 25 26 27 28 29 30 31 32 33 34 35 36 37 38 39 40 41 42 43 44 45 46 47 48 49 50
000
ASUS45 KBOU 022310
RWRCO

WEATHER ROUNDUP FOR COLORADO
NATIONAL WEATHER SERVICE DENVER/BOULDER CO
500 PM MDT THU JUL 02 2015

NOTE: "FAIR" INDICATES FEW OR NO CLOUDS BELOW 12000 FEET WITH NO
SIGNIFICANT WEATHER AND/OR OBSTRUCTIONS TO VISIBILITY.

COZ001>005-013-030-031-030000-
...NORTHWEST COLORADO...

CITY           SKY/WX    TMP DP  RH WIND       PRES   REMARKS
CRAIG          MOSUNNY   92  37  14 NE9       30.13F
HAYDEN         MOSUNNY   88  36  15 NW7       30.16F
MEEKER         SUNNY     89  40  17 VRB5      30.14F
MOUNT WERNER   NOT AVBL
STEAMBOAT SPGS MOSUNNY   84  37  18 W7G16     30.18F
WALDEN         PTSUNNY   79  36  21 N20G25    30.31S
$$

COZ006>008-011-030000-
...WEST CENTRAL VALLEYS...

CITY           SKY/WX    TMP DP  RH WIND       PRES   REMARKS
GRAND JUNCTION PTSUNNY   93  44  18 W7        29.99F
MONTROSE       CLOUDY    90  48  23 NW6       30.10F
EAGLE          MOSUNNY   88  45  22 CALM      30.15F
RIFLE          MOSUNNY   94  44  17 VRB6      30.05F
DELTA          CLOUDY    96  43  16 W13       30.02F
NUCLA          NOT AVBL
$$

COZ017>023-064>068-030000-
...SOUTHWEST COLORADO...

CITY           SKY/WX    TMP DP  RH WIND       PRES   REMARKS
DURANGO        CLOUDY    74  52  46 N9        30.17R
CORTEZ         PTSUNNY   88  51  28 NE16G22   30.08F THUNDER
PAGOSA SPRINGS CLOUDY    74  47  38 CALM      30.27S
TELLURIDE      PTSUNNY   72  47  41 N5        30.38S
WOLF CREEK PAS NOT AVBL
$$

COZ009-010-012-014-032>034-037-058>063-030000-
...CENTRAL COLORADO...

CITY           SKY/WX    TMP DP  RH WIND       PRES   REMARKS
ASPEN          PTSUNNY   75  51  43 SE7       30.27R
BUENA VISTA    CLOUDY    63  53  69 E3        30.38F
COPPER MTN     MOSUNNY   64  41  42 W6        30.64R THUNDER
BERTHOUD PASS  CLOUDY    43  34  70 E18G25    30.69S HAZE
COTTONWOOD PAS NOT AVBL
GUNNISON       CLOUDY    77  46  33 E12       30.27S
KREMMLING      MOSUNNY   82  30  15 NW12G17   30.24F
LEADVILLE      CLOUDY    60  46  59 S26G36    30.44F
MONARCH PASS   CLOUDY    45  45 100 E26G37    30.73R VSB 1/4
SALIDA         CLOUDY    62  58  87 SE7       30.43R
SUNLIGHT       MOSUNNY   72  37  28 NW6       30.55F
WILKERSON PASS CLOUDY    50  46  87 E9G16     30.64R
$$

COZ069>075-030000-
...SAN LUIS VALLEY/SANGRE DE CRISTO MOUNTAINS...

CITY           SKY/WX    TMP DP  RH WIND       PRES   REMARKS
ALAMOSA        CLOUDY    78  49  35 E12       30.26R
LA VETA PASS   CLOUDY    54  50  87 MISG      30.52S
SAGUACHE       CLOUDY    66  55  68 NW5       30.31R
$$

COZ035-036-038>040-030000-
...NORTHERN COLORADO FRONT RANGE...

CITY           SKY/WX    TMP DP  RH WIND       PRES   REMARKS
DENVER INTL AP MOSUNNY   81  50  33 SE10      30.15F
DMNS CITY PARK   N/A     80  48  32 SW3       30.15F
AURORA         PTSUNNY   80  52  37 SE8       30.18F
FRONT RANGE AP PTSUNNY   82  52  34 SE3       30.18F
ERIE MUNI ARPT PTSUNNY   82  51  34 SW6       30.13F
BOULDER MUN AP PTSUNNY   81  50  34 SE5       30.14F
CENTENNIAL     PTSUNNY   78  50  37 CALM      30.19F
BROOMFIELD     NOT AVBL
FORT COLLINS   MOSUNNY   84  54  34 SE12      30.11F
LONGMONT       MOSUNNY   88  49  25 SW6       30.14F
$$

COZ041-046-047-076>085-087-088-030000-
...PIKES PEAK/PALMER DIVIDE AND SOUTHERN FOOTHILLS...

CITY           SKY/WX    TMP DP  RH WIND       PRES   REMARKS
COLO. SPRINGS  PTSUNNY   73  58  59 S9        30.26S
A. F. ACADEMY  PTSUNNY   73  54  51 S7        30.26S
ELLICOTT       PTSUNNY  N/A N/A N/A S6        30.23F
FALCON         PTSUNNY   74  55  51 S9        30.30S
FORT CARSON    NOT AVBL
LIMON          SUNNY     78  52  40 S3        30.17F
MONUMENT HILL  NOT AVBL
TRINIDAD       PTSUNNY   77  57  50 NE8       30.23R
$$

COZ042>045-048>051-090-091-030000-
...NORTHEAST COLORADO...

CITY           SKY/WX    TMP DP  RH WIND       PRES   REMARKS
GREELEY ARPT   SUNNY     88  50  27 SE7       30.12F
AKRON          MOSUNNY   82  54  37 N15       30.12F
BURLINGTON     SUNNY     84  53  34 NW7G18    30.10F
WRAY           MOSUNNY   88  52  28 NE13G18   30.07F
STERLING       SUNNY     82  55  39 E9          N/A
HOLYOKE        SUNNY     86  54  32 N15       30.08F
FORT MORGAN    PTSUNNY   81  52  37 E14G21    30.12S
$$

COZ086-089-092>099-030000-
...SOUTHEAST COLORADO...

CITY           SKY/WX    TMP DP  RH WIND       PRES   REMARKS
PUEBLO         CLOUDY    81  56  42 SW6       30.15F
LA JUNTA       PTSUNNY   83  57  41 S7        30.10F
LAMAR          MOSUNNY   88  55  32 N9        30.04F
SPRINGFIELD      N/A     86  56  35 N12G17    30.09S
$$


USA.gov is the U.S. government's official web portal to all federal, state and local government web resources and services.